When you browse on this site, cookies collect data to enhance your experience and personalize the content and advertising you see.
Visit our Privacy Policy to learn more. By continuing to use the site, you agree to this use of cookies and data.

Stündliche Wetter 1-e Maya

Heute, 9 August, Sonntag

Zeit Temperatur Niederschläge Wind Luftdruck Luftfeuchtigkeit
00:00 +15°C° 0 mm 2 m/S 751 mmHg 97%
01:00 +15°C° 0 mm 2 m/S 751 mmHg 97%
02:00 +15°C° 0 mm 2 m/S 751 mmHg 97%
03:00 +15°C° 0 mm 2 m/S 751 mmHg 98%
04:00 +15°C° 0 mm 2 m/S 751 mmHg 96%
05:00 +15°C° 0 mm 2 m/S 751 mmHg 95%
06:00 +15°C° 0 mm 2 m/S 750 mmHg 94%
07:00 +17°C° 0 mm 2 m/S 750 mmHg 87%
08:00 +19°C° 0 mm 3 m/S 750 mmHg 80%
09:00 +21°C° 0 mm 3 m/S 750 mmHg 72%
10:00 +21°C° 0.3 mm 3 m/S 750 mmHg 72%
11:00 +21°C° 0.3 mm 3 m/S 750 mmHg 71%
12:00 +23°C° 0.3 mm 2 m/S 750 mmHg 71%
13:00 +22°C° 0.2 mm 3 m/S 750 mmHg 68%
14:00 +24°C° 0.2 mm 3 m/S 750 mmHg 65%
15:00 +24°C° 0.2 mm 3 m/S 749 mmHg 62%
16:00 +24°C° 0 mm 2 m/S 749 mmHg 62%
17:00 +24°C° 0 mm 2 m/S 749 mmHg 61%
18:00 +24°C° 0 mm 2 m/S 749 mmHg 61%
19:00 +21°C° 0 mm 2 m/S 749 mmHg 67%
20:00 +19°C° 0 mm 2 m/S 749 mmHg 74%
21:00 +17°C° 0 mm 2 m/S 750 mmHg 81%
22:00 +16°C° 0 mm 2 m/S 750 mmHg 83%
23:00 +16°C° 0 mm 1 m/S 750 mmHg 85%

Morgen, 10 August, Montag

Zeit Temperatur Niederschläge Wind Luftdruck Luftfeuchtigkeit
00:00 +15°C° 0 mm 1 m/S 750 mmHg 88%
01:00 +15°C° 0 mm 1 m/S 750 mmHg 90%
02:00 +14°C° 0 mm 1 m/S 750 mmHg 91%
03:00 +14°C° 0 mm 1 m/S 750 mmHg 93%
04:00 +14°C° 0 mm 1 m/S 750 mmHg 93%
05:00 +14°C° 0 mm 1 m/S 750 mmHg 92%
06:00 +14°C° 0 mm 1 m/S 750 mmHg 92%
07:00 +16°C° 0 mm 2 m/S 750 mmHg 82%
08:00 +18°C° 0 mm 2 m/S 751 mmHg 72%
09:00 +20°C° 0 mm 2 m/S 751 mmHg 63%
10:00 +21°C° 0 mm 2 m/S 751 mmHg 57%
11:00 +22°C° 0 mm 3 m/S 751 mmHg 52%
12:00 +24°C° 0 mm 3 m/S 751 mmHg 47%
13:00 +24°C° 0 mm 3 m/S 750 mmHg 45%
14:00 +24°C° 0 mm 3 m/S 750 mmHg 44%
15:00 +25°C° 0 mm 3 m/S 750 mmHg 43%
16:00 +24°C° 0 mm 2 m/S 750 mmHg 47%
17:00 +24°C° 0 mm 2 m/S 750 mmHg 51%
18:00 +23°C° 0 mm 1 m/S 750 mmHg 55%
19:00 +21°C° 0 mm 1 m/S 750 mmHg 61%
20:00 +19°C° 0 mm 1 m/S 749 mmHg 66%
21:00 +15°C° 0 mm 0 m/S 749 mmHg 72%
22:00 +16°C° 0 mm 1 m/S 749 mmHg 73%
23:00 +15°C° 0 mm 1 m/S 749 mmHg 74%

übermorgen, 11 August, Dienstag

Zeit Temperatur Niederschläge Wind Luftdruck Luftfeuchtigkeit
00:00 +15°C° 0 mm 1 m/S 749 mmHg 75%
01:00 +15°C° 0 mm 1 m/S 749 mmHg 76%
02:00 +15°C° 0 mm 1 m/S 749 mmHg 77%
03:00 +14°C° 0 mm 2 m/S 749 mmHg 78%
04:00 +15°C° 0 mm 2 m/S 749 mmHg 79%
05:00 +15°C° 0 mm 2 m/S 748 mmHg 81%
06:00 +15°C° 0 mm 2 m/S 748 mmHg 82%
07:00 +17°C° 0.1 mm 2 m/S 748 mmHg 80%
08:00 +18°C° 0.1 mm 2 m/S 748 mmHg 78%
09:00 +20°C° 0.1 mm 2 m/S 748 mmHg 76%
10:00 +21°C° 0.2 mm 2 m/S 748 mmHg 75%
11:00 +21°C° 0.2 mm 2 m/S 748 mmHg 74%
12:00 +23°C° 0.2 mm 2 m/S 748 mmHg 73%
13:00 +22°C° 0.7 mm 3 m/S 748 mmHg 69%
14:00 +24°C° 0.7 mm 3 m/S 748 mmHg 65%
15:00 +24°C° 0.7 mm 3 m/S 748 mmHg 61%
16:00 +22°C° 0.1 mm 3 m/S 748 mmHg 62%
17:00 +21°C° 0.1 mm 3 m/S 748 mmHg 62%
18:00 +21°C° 0.1 mm 4 m/S 748 mmHg 63%
19:00 +18°C° 0 mm 3 m/S 748 mmHg 69%
20:00 +16°C° 0 mm 3 m/S 748 mmHg 75%
21:00 +14°C° 0 mm 2 m/S 748 mmHg 82%
22:00 +14°C° 0 mm 2 m/S 748 mmHg 85%
23:00 +13°C° 0 mm 2 m/S 748 mmHg 89%

12 August, Mittwoch

Zeit Temperatur Niederschläge Wind Luftdruck Luftfeuchtigkeit
00:00 +13°C° 0 mm 2 m/S 748 mmHg 92%
01:00 +12°C° 0 mm 2 m/S 748 mmHg 94%
02:00 +12°C° 0 mm 2 m/S 747 mmHg 95%
03:00 +10°C° 0 mm 2 m/S 747 mmHg 97%
04:00 +12°C° 0 mm 2 m/S 747 mmHg 95%
05:00 +12°C° 0 mm 2 m/S 747 mmHg 94%
06:00 +13°C° 0 mm 2 m/S 747 mmHg 93%
07:00 +13°C° 0 mm 3 m/S 747 mmHg 89%
08:00 +14°C° 0 mm 3 m/S 747 mmHg 86%
09:00 +14°C° 0 mm 3 m/S 747 mmHg 83%
10:00 +17°C° 0.1 mm 3 m/S 747 mmHg 76%
11:00 +18°C° 0.1 mm 3 m/S 747 mmHg 70%
12:00 +20°C° 0.1 mm 3 m/S 748 mmHg 64%
13:00 +20°C° 0.2 mm 4 m/S 747 mmHg 65%
14:00 +20°C° 0.2 mm 4 m/S 747 mmHg 66%
15:00 +20°C° 0.2 mm 4 m/S 747 mmHg 67%
16:00 +19°C° 0.2 mm 4 m/S 747 mmHg 69%
17:00 +18°C° 0.2 mm 4 m/S 747 mmHg 72%
18:00 +17°C° 0.2 mm 4 m/S 747 mmHg 74%
19:00 +15°C° 0 mm 4 m/S 748 mmHg 78%
20:00 +14°C° 0 mm 3 m/S 748 mmHg 82%
21:00 +13°C° 0 mm 3 m/S 748 mmHg 85%
22:00 +13°C° 0 mm 3 m/S 748 mmHg 85%
23:00 +13°C° 0 mm 3 m/S 748 mmHg 85%

13 August, Donnerstag

Zeit Temperatur Niederschläge Wind Luftdruck Luftfeuchtigkeit
00:00 +13°C° 0 mm 3 m/S 748 mmHg 85%
01:00 +12°C° 0 mm 3 m/S 748 mmHg 85%
02:00 +12°C° 0 mm 3 m/S 748 mmHg 85%
03:00 +12°C° 0 mm 3 m/S 748 mmHg 85%
04:00 +12°C° 0 mm 3 m/S 748 mmHg 85%
05:00 +12°C° 0 mm 3 m/S 748 mmHg 86%
06:00 +11°C° 0 mm 3 m/S 748 mmHg 86%
07:00 +13°C° 0 mm 3 m/S 748 mmHg 79%
08:00 +14°C° 0 mm 4 m/S 748 mmHg 73%
09:00 +15°C° 0 mm 4 m/S 748 mmHg 66%
10:00 +17°C° 0.1 mm 4 m/S 748 mmHg 62%
11:00 +18°C° 0.1 mm 4 m/S 748 mmHg 57%
12:00 +18°C° 0.1 mm 4 m/S 748 mmHg 53%
13:00 +18°C° 0 mm 4 m/S 748 mmHg 52%
14:00 +18°C° 0 mm 4 m/S 748 mmHg 52%
15:00 +18°C° 0 mm 4 m/S 748 mmHg 51%
16:00 +17°C° 0 mm 4 m/S 748 mmHg 52%
17:00 +17°C° 0 mm 3 m/S 748 mmHg 53%
18:00 +17°C° 0 mm 3 m/S 748 mmHg 54%
19:00 +15°C° 0 mm 2 m/S 748 mmHg 61%
20:00 +14°C° 0 mm 2 m/S 748 mmHg 68%
21:00 +12°C° 0 mm 2 m/S 748 mmHg 76%
22:00 +10°C° 0 mm 2 m/S 748 mmHg 80%
23:00 +10°C° 0 mm 2 m/S 748 mmHg 84%

14 August, Freitag

Zeit Temperatur Niederschläge Wind Luftdruck Luftfeuchtigkeit
00:00 +9°C° 0 mm 2 m/S 748 mmHg 89%
01:00 +8°C° 0 mm 2 m/S 748 mmHg 90%
02:00 +8°C° 0 mm 2 m/S 748 mmHg 92%
03:00 +8°C° 0 mm 2 m/S 748 mmHg 93%
04:00 +8°C° 0 mm 2 m/S 748 mmHg 92%
05:00 +8°C° 0 mm 2 m/S 748 mmHg 91%
06:00 +8°C° 0 mm 2 m/S 748 mmHg 90%
07:00 +12°C° 0 mm 2 m/S 748 mmHg 82%
08:00 +14°C° 0 mm 2 m/S 748 mmHg 73%
09:00 +16°C° 0 mm 2 m/S 748 mmHg 65%
10:00 +16°C° 0.5 mm 2 m/S 747 mmHg 66%
11:00 +17°C° 0.5 mm 3 m/S 747 mmHg 68%
12:00 +18°C° 0.5 mm 3 m/S 747 mmHg 70%
13:00 +18°C° 0.8 mm 3 m/S 747 mmHg 69%
14:00 +18°C° 0.8 mm 3 m/S 747 mmHg 69%
15:00 +18°C° 0.8 mm 3 m/S 746 mmHg 69%
16:00 +18°C° 0.6 mm 3 m/S 746 mmHg 73%
17:00 +17°C° 0.6 mm 2 m/S 746 mmHg 76%
18:00 +16°C° 0.6 mm 2 m/S 746 mmHg 80%
19:00 +15°C° 0 mm 2 m/S 747 mmHg 84%
20:00 +13°C° 0 mm 2 m/S 747 mmHg 88%
21:00 +12°C° 0 mm 2 m/S 747 mmHg 92%
22:00 +10°C° 0 mm 2 m/S 747 mmHg 93%
23:00 +9°C° 0 mm 2 m/S 747 mmHg 94%
Mehr zeigen